Regional Weather Roundup
Issued by NWS

Home | Current Version | Previous Version | Text Only | Print | Product List | Glossary On
Versions: 1 2 3 4 5 6 7 8 9 10 11 12 13 14 15 16 17 18 19 20 21 22 23 24 25 26 27 28 29
000
ASUS45 KBOI 251910
RWRID
WEATHER ROUNDUP FOR IDAHO
NATIONAL WEATHER SERVICE BOISE ID
100 PM MDT SAT OCT 25 2014

NOTE: "FAIR" INDICATES FEW OR NO CLOUDS BELOW 12000 FEET
WITH NO SIGNIFICANT WEATHER AND/OR OBSTRUCTIONS TO VISIBILITY

IDZ012-014-252000-
SOUTHWEST IDAHO


CITY           SKY/WX    TMP DP  RH WIND       PRES   REMARKS
BOISE          CLOUDY    66  40  38 E9        29.79F
CALDWELL       CLOUDY    48  41  76 NW5       29.83S
MOUNTAIN HOME  PTSUNNY   69  37  30 E17       29.81F
$$

IDZ016-017-252000-
SOUTHCENTRAL IDAHO


CITY           SKY/WX    TMP DP  RH WIND       PRES   REMARKS
BURLEY         SUNNY     75  32  20 SW21G33   29.90F
JEROME         PTSUNNY   74  30  19 S20G26    29.90F
TWIN FALLS     LGT RAIN  76  31  19 S24G33    29.88F
$$

IDZ019>023-252000-
SOUTHEAST IDAHO


CITY           SKY/WX    TMP DP  RH WIND       PRES   REMARKS
IDAHO FALLS    SUNNY     73  32  22 SW20G29   29.98F
POCATELLO      SUNNY     75  29  18 S30G44    29.94F
REXBURG        SUNNY     70  32  24 SW15G23   29.99F
$$

IDZ006-010-011-018-031-032-252000-
CENTRAL IDAHO MOUNTAINS


CITY           SKY/WX    TMP DP  RH WIND       PRES   REMARKS
MCCALL         CLOUDY    47  39  74 VRB3      29.85F
HAILEY         PTSUNNY   64  37  36 SE12      29.99F
STANLEY          N/A     58  31  35 SE13      29.97F
SALMON         CLOUDY    45  37  76 CALM      29.91F
CHALLIS        PTSUNNY   53  35  50 N5        29.90F
$$

IDZ002-004-006-007-026-252000-
NORTHERN IDAHO


CITY           SKY/WX    TMP DP  RH WIND       PRES   REMARKS
LEWISTON       PTSUNNY   57  47  69 E9        29.63F
LOWELL           N/A     50  46  86 N6        29.78F
COEUR D`ALENE  PTSUNNY  N/A N/A N/A N17       29.63F
MULLAN PASS    FOG       37  37 100 S12       29.78F VSB<1/4 WCI  29
$$



USA.gov is the U.S. government's official web portal to all federal, state and local government web resources and services.